This demonstration page uses our WeatherBlox Daily Observations layout. Learn more.

41.55636, -103.73856

Hourly Observations for May 31, 2019

Temp ( °F °C ) Dew Point ( °F °C ) Humidity (%) Winds ( mph kmh ) Pressure ( in mb ) Visibility ( mi km ) Precip ( " mm )
12:53 am 00:53 Clear 54 12.2 48 8.9 80 80 Calm 29.94 1014 9 14.484096 0 0
1:53 am 01:53 Clear 51 10.6 47 8.3 86 86 ENE 5 7 29.94 1014 8 12.874752 0 0
2:53 am 02:53 Clear 50 10 46 7.8 86 86 E 7 11 29.94 1014 9 14.484096 0 0
3:53 am 03:53 Clear 49 9.4 45 7.2 86 86 E 5 7 29.94 1014 9 14.484096 0 0
4:53 am 04:53 Clear 47 8.3 44 6.7 90 90 undefined N/A 29.94 1014 8 12.874752 0 0
5:53 am 05:53 Sunny 48 8.9 45 7.2 89 89 E 5 7 29.94 1014 7 11.265408 0 0
6:33 am 06:33 Partly Cloudy with Mist and Fog 49 9.4 47 8.3 93 93 Calm 30.03 1017 6 9.656064 0 0
6:53 am 06:53 Mostly Sunny 53 11.7 49 9.4 86 86 Calm 29.94 1014 7 11.265408 0 0
7:53 am 07:53 Sunny 56 13.3 50 10 81 81 ESE 7 11 29.94 1014 8 12.874752 0 0
8:53 am 08:53 Sunny 62 16.7 49 9.4 62 62 VRB 3 6 29.94 1014 10 16.09344 0 0
9:53 am 09:53 Sunny 67 19.4 49 9.4 53 53 Calm 29.94 1014 10 16.09344 0 0
10:53 am 10:53 Sunny 71 21.7 49 9.4 46 46 WNW 9 15 29.91 1013 10 16.09344 0 0
11:53 am 11:53 Sunny 76 24.4 51 10.6 42 42 WNW 6 9 29.91 1013 10 16.09344 0 0
12:53 pm 12:53 Sunny 77 25 48 8.9 36 36 WSW 5 7 29.88 1012 10 16.09344 0 0
1:53 pm 13:53 Sunny 78 25.6 50 10 37 37 N 9 15 29.88 1012 10 16.09344 0 0
2:53 pm 14:53 Sunny 79 26.1 51 10.6 38 38 WNW 8 13 29.85 1011 10 16.09344 0 0
3:53 pm 15:53 Sunny 79 26.1 50 10 36 36 W 12 19 29.85 1011 10 16.09344 0 0
4:53 pm 16:53 Partly Cloudy 75 23.9 47 8.3 37 37 WNW 9 15 29.85 1011 10 16.09344 0 0
5:53 pm 17:53 Mostly Sunny 76 24.4 47 8.3 36 36 NW 9 15 29.85 1011 10 16.09344 0 0
6:53 pm 18:53 Partly Cloudy 76 24.4 47 8.3 36 36 NNW 12 19 29.85 1011 10 16.09344 0 0
7:53 pm 19:53 Partly Cloudy 68 20 48 8.9 49 49 NNW 9 15 29.88 1012 10 16.09344 0 0
8:53 pm 20:53 Clear 64 17.8 47 8.3 54 54 NNE 16 26 29.91 1013 10 16.09344 0 0
9:53 pm 21:53 Clear 59 15 47 8.3 64 64 N 8 13 29.94 1014 10 16.09344 0 0
10:53 pm 22:53 Clear 59 15 45 7.2 60 60 Calm 29.97 1015 10 16.09344 0 0
11:53 pm 23:53 Partly Cloudy 57 13.9 47 8.3 69 69 WNW 7 11 29.97 1015 10 16.09344 0 0

Powered by AerisWeather